Regional Weather Roundup
Issued by NWS

Home | Current Version | Previous Version | Graphics & Text | Print | Product List | Glossary On
Versions: 1 2 3 4 5 6 7 8 9 10 11 12 13 14 15 16 17 18 19 20 21 22 23 24 25 26 27 28 29 30 31 32 33 34 35 36 37 38 39 40 41 42 43 44 45 46 47 48 49 50
000
ASUS43 KIND 241359
RWRIN

WEATHER ROUNDUP FOR INDIANA
NATIONAL WEATHER SERVICE INDIANAPOLIS IN
1000 AM EDT WED MAY 24 2017

NOTE: "FAIR" INDICATES FEW OR NO CLOUDS BELOW 12,000 FEET WITH NO
SIGNIFICANT WEATHER AND/OR OBSTRUCTIONS TO VISIBILITY.

* - STATION DOES NOT REPORT WEATHER SUCH AS PRECIPITATION OR FOG.

+ - STATION NOT QUALITY CONTROLLED BY THE NATIONAL WEATHER SERVICE.
    USE DATA WITH CAUTION...ESPECIALLY DEWPOINT AND RELATIVE
    HUMIDITY OBSERVATIONS.

INZ001>003-010>013-019-020-241500-
NORTHWEST INDIANA

CITY           SKY/WX    TMP DP  RH WIND       PRES   REMARKS
GARY /AIRPORT/ CLOUDY    55  52  88 NE17      29.58S
MICHIGAN CITY+ PTSUNNY   57  55  94 NE6       29.56F
MONTICELLO +   LGT RAIN  60  55  85 NE5       29.53S
RENSSELAER +   LGT RAIN  59  54  82 N6        29.54F

$$

LMZ046-743>745-241500-
SOUTHERN LAKE MICHIGAN

STATION/POSITION TIME  TEMP    WIND        PRES    WAVE
                       AIR SEA DIR/SP/G            HT
                 (UTC) (F)     (DEG/KT/KT) (MB)    (FT)
BURNS HARBOR     1340   53      70/ 11/ 14 1001.7R
MICHIGAN CITY    1330   52      30/ 16/ 18   N/A
5NW MICH CITY    1350   52 53   40/ 14/ 16   N/A     4

$$

INZ004-005-014>016-021>024-241500-
NORTH CENTRAL INDIANA

CITY           SKY/WX    TMP DP  RH WIND       PRES   REMARKS
ELKHART        SUNNY     63  54  72 E5        29.55F
GOSHEN         SUNNY     65  54  67 E14       29.54F
SOUTH BEND     CLOUDY    63  55  75 NE5       29.55F

$$

INZ006>009-017-018-025>027-241500-
NORTHEAST INDIANA

CITY           SKY/WX    TMP DP  RH WIND       PRES   REMARKS
ANGOLA *+      MOSUNNY   59  54  82 E7        29.56F
FORT WAYNE     CLOUDY    62  56  80 E7        29.54F
KENDALLVILLE + CLOUDY    62  55  75 E8        29.56F

$$

INZ028-029-035-036-043>045-051>053-241500-
WEST CENTRAL INDIANA

CITY           SKY/WX    TMP DP  RH WIND       PRES   REMARKS
CRAWFORDSVL +  CLOUDY    57  57 100 NW3       29.53S FOG
GREENCASTLE +  CLOUDY    57  55  94 N3        29.53F FOG
LAFAYETTE      CLOUDY    59  56  89 N6        29.53S
TERRE HAUTE    LGT RAIN  59  55  87 N5        29.53S

$$

INZ030>032-037>040-046>048-054>057-064-065-241500-
CENTRAL INDIANA

CITY           SKY/WX    TMP DP  RH WIND       PRES   REMARKS
CP ATTERBURY + CLOUDY    61  55  82 CALM      29.52S
INDIANAPOLIS   CLOUDY    60  57  89 W7        29.52S FOG
-EAGLE CREEK   CLOUDY    61  57  87 NW6       29.51S FOG
KOKOMO +       CLOUDY    62  56  80 CALM      29.53F
SHELBYVILLE    CLOUDY    65  53  65 NE3       29.50F

$$

INZ033-034-041-042-049-050-058-059-241500-
EAST CENTRAL INDIANA

CITY           SKY/WX    TMP DP  RH WIND       PRES   REMARKS
MUNCIE         CLOUDY    66  57  72 E8        29.52F
RICHMOND +     CLOUDY    61  59  94 E9        29.54S FOG

$$

INZ060-061-067>069-081>083-085>088-241500-
SOUTHWEST INDIANA

CITY           SKY/WX    TMP DP  RH WIND       PRES   REMARKS
EVANSVILLE     LGT RAIN  60  57  89 N7        29.52F FOG
HUNTINGBURG *+ LGT RAIN  58  57  97 N6        29.52F

$$

INZ062-063-066-070>080-084-089>092-241500-
SOUTH CENTRAL AND SOUTHEAST INDIANA

CITY           SKY/WX    TMP DP  RH WIND       PRES   REMARKS
BLOOMINGTON    LGT RAIN  58  55  90 CALM      29.53S FOG
MADISON *+     CLOUDY    61  59  94 CALM      29.53S
SEYMOUR +      LGT RAIN  63  59  88 CALM      29.51S

$$




USA.gov is the U.S. government's official web portal to all federal, state and local government web resources and services.